Tracking 19170 objects as of 23-May-2018
HD Live streaming from Space Station
objects crossing your sky now

MARCO-A

Track MARCO-A now!
10-day predictions


NORAD ID: 43458
Int'l Code: 2018-042B
Perigee: 174.9 km
Apogee: 193.2 km
Inclination: 64.0 °
Period: 88.0 minutes
Semi major axis: 6555 km
RCS: Unknown
Launch date: May 5, 2018
Source: United States (US)
Launch site: AIR FORCE WESTERN TEST RANGE (AFWTR)
aabbcc
Your satellite tracking list
Your tracking list is empty




NASA's NSSDC Master Catalog

Two Line Element Set (TLE):
1 43458U 18042B   18125.51663196 -.00002567 +81162-5 +00000-0 0  9997
2 43458 063.9700 108.8000 0014000 352.2000 089.5396 16.35832554000007
Source of the keplerian elements: AFSPC